Theta_e
303 303 304 303 303 303 302 301 299 298 298 299 298 300 301 300 297 288 283 285 282 273 282 285 285 283 283 283 277 280 279 279 278 272 271 269 273 271 271 274 276 276 271 266 261 265 271 277 281 282 282 282 283 284
303 303 302 302 302 302 301 300 298 297 297 297 298 299 300 299 299 291 283 286 286 280 283 288 286 288 286 286 284 283 281 281 282 274 270 268 266 270 267 273 276 273 275 272 275 275 279 279 280 282 283 283 283 283
302 302 302 301 301 302 300 299 298 297 296 296 296 298 298 299 300 291 283 283 281 276 282 284 283 287 289 288 289 281 281 285 283 281 274 269 269 274 268 269 272 276 278 275 275 277 277 280 282 282 283 283 283 283
302 301 301 300 300 300 299 298 297 296 295 294 295 296 297 297 296 291 283 282 279 273 271 275 286 283 287 288 290 289 286 283 282 279 275 271 269 278 272 275 274 276 277 276 275 278 280 281 281 283 284 283 282 282
301 301 300 299 299 298 298 297 296 295 294 294 295 295 297 296 293 286 282 282 278 278 268 275 282 281 286 288 287 285 283 282 276 274 274 274 278 276 273 275 272 277 277 275 274 278 278 279 281 282 284 284 282 282
301 300 300 299 298 298 297 296 295 295 294 294 294 296 296 293 289 282 274 281 281 277 272 271 272 276 282 284 284 284 281 278 282 274 277 280 283 277 265 264 275 275 279 279 278 278 280 280 281 280 282 281 281 281
300 300 299 298 297 297 296 296 296 295 294 294 294 297 295 293 283 276 275 280 285 279 269 265 266 278 277 277 278 281 282 278 278 275 275 274 277 279 274 263 274 273 273 274 275 277 278 277 278 273 274 271 269 269
300 299 299 298 296 296 296 295 295 295 294 294 295 296 294 292 287 276 281 285 280 273 267 263 269 272 278 274 269 276 273 264 272 271 266 267 270 276 271 273 275 273 273 271 272 272 274 272 272 271 270 269 272 272
299 299 299 298 297 296 296 296 295 295 295 296 294 291 282 277 270 275 287 282 276 275 263 257 264 266 272 273 266 269 263 266 264 261 260 263 259 266 271 273 272 272 273 273 267 266 268 271 269 268 267 267 270 271
299 298 298 297 297 296 296 296 295 296 297 292 282 274 268 273 286 282 273 270 270 264 264 263 261 267 272 271 263 264 262 261 262 259 259 257 263 267 270 271 269 271 271 269 270 271 268 269 268 268 269 267 268 267
298 298 298 297 297 297 296 296 296 296 289 275 267 267 273 280 272 264 264 266 262 264 258 267 261 267 269 265 265 267 260 259 259 261 260 258 262 268 265 262 262 262 267 270 267 265 265 267 267 266 267 265 264 265
298 298 298 298 298 298 296 296 296 282 276 278 275 272 268 265 263 265 258 257 259 264 261 263 263 265 268 265 265 262 258 258 261 252 258 259 268 268 262 262 261 258 258 262 261 267 266 267 266 266 267 266 265 266
298 298 298 298 298 297 296 297 294 289 281 272 268 265 267 262 264 264 262 262 258 256 262 263 265 264 263 265 259 259 259 258 253 256 260 265 267 267 263 259 261 255 255 258 261 259 260 263 259 262 267 266 262 261
298 298 298 298 298 298 298 296 291 284 275 268 267 267 266 262 261 262 263 263 262 260 259 260 257 262 256 261 257 261 254 253 256 258 263 266 265 264 261 256 258 263 259 261 262 261 262 261 263 261 261 261 260 265
298 298 298 298 298 299 296 292 288 276 270 268 266 267 262 260 254 252 249 254 257 258 261 261 260 265 255 258 256 255 257 258 260 265 265 266 262 258 260 260 260 262 262 264 261 263 263 262 261 263 263 260 257 260
298 298 294 298 298 297 293 289 284 274 270 265 262 264 256 261 258 254 252 257 256 260 258 261 256 260 258 258 259 261 263 263 267 262 265 260 262 261 262 260 261 260 260 262 260 260 260 260 262 264 261 262 262 260
296 287 297 298 298 294 292 283 281 270 276 272 265 260 262 262 265 261 261 261 262 262 263 259 263 263 258 258 261 258 265 267 266 265 260 259 264 266 263 261 263 261 261 261 260 260 260 257 254 257 267 265 260 260
287 293 297 297 292 289 284 280 277 276 273 270 265 263 259 261 260 257 256 259 265 263 262 266 264 260 261 263 264 265 263 263 260 261 263 262 262 264 262 267 266 263 264 263 262 262 258 259 261 267 264 264 262 264
292 294 296 293 290 285 281 278 275 273 271 269 263 260 259 259 258 258 258 260 260 261 266 263 265 265 265 263 266 265 263 264 270 268 264 263 263 265 266 263 263 263 263 264 264 266 264 263 264 262 261 258 261 263
296 296 294 294 290 281 277 276 275 271 271 268 263 260 259 259 257 257 259 260 263 264 267 266 268 268 269 268 268 269 269 267 268 269 270 270 265 266 267 266 267 264 264 265 262 261 261 263 261 259 259 260 261 263
294 292 294 289 285 280 278 276 275 271 267 268 264 264 261 260 261 262 263 261 266 265 267 270 272 270 267 266 265 266 267 264 267 270 270 268 268 265 265 262 259 258 260 258 258 261 260 260 261 260 258 260 259 259
289 293 285 287 284 280 276 272 272 267 268 265 266 267 265 265 265 264 263 266 267 270 268 269 272 271 268 268 263 260 259 259 259 262 264 263 264 264 264 262 263 263 260 259 258 258 261 261 261 260 257 260 258 257
290 288 285 284 280 275 271 270 268 264 268 267 267 268 265 264 262 262 266 267 267 267 268 267 268 269 268 262 261 261 261 261 262 261 262 261 258 257 260 260 257 259 260 259 255 255 258 260 261 261 261 260 260 261
290 285 281 279 275 269 272 269 266 265 266 266 269 267 265 265 265 267 268 268 268 266 262 262 264 267 269 265 262 260 259 258 256 256 254 257 258 258 254 255 253 254 254 254 255 259 260 261 261 260 259 258 258 258
281 280 280 275 269 267 264 263 261 265 265 265 267 265 264 264 268 268 269 268 262 260 259 260 261 261 262 261 258 257 253 255 255 253 254 252 256 255 256 254 253 253 253 259 258 258 258 259 259 260 260 260 260 260
276 277 276 268 267 266 265 263 265 267 266 265 264 262 263 267 270 273 265 256 257 256 256 256 256 258 257 256 255 255 256 255 253 254 256 255 255 254 254 257 257 258 258 255 255 257 258 259 259 259 260 260 260 259
273 273 268 266 266 265 263 262 263 267 264 264 262 261 265 269 270 258 256 255 255 255 256 256 254 254 254 255 256 257 258 257 256 258 260 260 259 259 259 257 255 258 259 259 259 258 258 258 259 259 259 260 260 260
270 270 268 263 263 261 264 263 265 267 265 261 264 262 267 265 259 252 254 255 255 255 255 255 255 255 255 256 257 257 258 258 260 261 261 260 259 259 258 259 258 262 259 259 258 259 259 259 259 260 260 260 261 262
265 262 268 260 258 261 261 264 264 258 258 266 265 256 249 250 251 251 252 254 253 252 252 253 254 255 255 256 257 257 257 256 256 255 254 255 256 258 259 258 258 258 258 258 259 261 261 261 262 261 260 260 260 260
262 260 267 263 263 259 255 253 253 251 252 251 251 251 250 251 252 254 252 251 250 249 249 250 251 252 252 252 253 254 255 255 255 253 251 252 253 256 256 256 256 257 257 257 257 258 261 260 261 259 258 258 258 258
257 262 263 260 258 257 257 256 254 254 253 252 251 250 248 250 251 253 253 250 249 249 248 249 249 249 250 251 251 251 251 253 253 254 254 255 255 255 255 256 257 257 257 257 258 258 258 257 257 256 256 256 256 257
260 259 259 259 259 261 261 258 256 255 254 254 251 249 248 247 246 248 252 250 248 250 252 251 250 251 252 252 251 253 255 254 254 255 254 255 255 256 256 257 258 258 257 257 256 256 256 255 256 256 256 256 256 255
258 259 262 261 260 260 261 258 256 253 253 252 251 251 250 249 247 251 253 253 252 251 251 252 253 253 253 253 254 254 255 254 254 257 258 258 258 259 258 258 258 257 256 254 254 254 255 255 255 255 255 255 255 254
Wind_Speed
20 18 16 14 10 10 10 6 4 2 3 3 3 4 3 4 4 4 0 1 3 3 1 2 3 3 2 2 4 5 4 4 6 7 3 1 3 2 4 1 2 4 5 2 3 5 4 2 2 7 3 2 3 5
21 19 17 15 15 12 11 9 7 5 4 3 3 4 1 2 3 5 3 1 1 5 2 2 2 3 4 4 3 5 1 3 3 2 2 3 3 1 2 3 1 1 4 5 5 5 1 1 2 1 3 4 2 7
21 20 17 15 15 15 12 10 9 7 4 2 3 1 3 5 5 5 3 2 4 3 1 1 2 4 4 3 4 3 2 3 2 1 1 2 7 1 3 2 1 2 2 3 3 1 2 2 2 1 1 3 5 6
21 20 19 17 15 13 13 12 9 7 4 1 2 0 3 2 4 5 3 1 4 3 4 4 2 2 6 7 3 2 2 1 1 2 2 2 4 2 1 2 2 3 2 2 2 3 4 3 2 4 4 5 6 4
20 20 20 18 16 15 14 12 10 8 5 3 1 2 7 7 9 8 3 2 1 6 5 1 2 1 5 5 4 5 2 2 2 3 4 4 1 2 1 2 3 5 6 4 4 3 2 2 4 3 7 5 4 4
22 21 21 19 17 16 15 12 11 10 8 4 1 8 11 7 4 3 5 3 1 2 5 2 3 5 4 5 8 7 5 3 2 3 2 2 1 2 2 2 5 3 1 2 1 1 2 4 5 2 5 4 3 3
22 22 21 20 18 17 15 13 13 11 8 6 6 11 11 9 4 4 5 3 1 2 5 3 4 3 3 4 3 3 4 3 3 2 3 1 2 2 1 2 5 3 3 2 1 3 5 2 2 1 4 3 3 2
23 21 20 20 18 16 17 15 13 11 8 10 8 13 15 16 10 4 4 4 4 6 5 5 2 4 4 2 2 2 2 4 6 2 4 4 5 2 4 7 5 4 4 3 4 1 2 1 2 4 3 3 3 3
24 22 20 19 19 18 17 15 12 11 12 16 16 11 6 5 3 2 5 6 3 4 5 4 6 4 3 2 1 4 3 4 3 3 2 2 3 4 9 6 4 3 4 2 1 3 3 1 2 2 0 1 1 5
24 22 21 20 19 17 15 16 14 14 21 15 6 5 3 1 5 5 7 4 5 6 5 4 2 3 3 2 3 3 3 2 1 4 3 3 6 6 7 7 5 3 5 6 5 2 1 3 4 2 4 3 4 4
26 23 22 21 19 17 19 17 18 23 10 4 3 2 3 6 4 5 2 4 4 4 3 2 3 4 2 4 3 1 2 2 3 5 3 3 6 6 4 5 4 4 5 7 2 2 2 3 3 4 5 6 5 4
26 25 23 21 20 21 21 18 25 6 3 5 6 5 3 6 5 6 2 4 2 5 1 4 3 3 1 2 5 3 4 3 3 1 4 4 7 6 4 5 3 3 3 5 5 6 5 6 6 5 5 5 6 6
27 25 24 22 20 23 22 22 16 22 10 4 6 6 5 4 5 6 4 5 2 4 5 3 2 2 3 3 4 4 5 3 1 4 5 7 5 7 5 4 3 1 1 0 1 2 3 5 2 6 6 6 5 5
28 25 24 22 21 21 20 24 24 10 6 4 5 2 5 2 5 6 5 5 3 4 4 3 3 3 1 5 1 6 2 2 4 3 6 5 6 5 4 2 1 1 1 4 5 5 5 5 4 4 5 3 3 6
27 25 23 22 22 23 26 24 12 5 4 2 4 4 4 2 0 2 1 2 2 2 4 4 4 3 3 5 2 4 4 2 6 7 5 5 4 3 4 1 2 2 2 1 2 2 3 3 4 6 5 4 3 5
28 22 12 24 23 29 27 13 5 4 3 4 2 2 1 3 3 1 2 2 3 2 2 4 4 5 1 5 4 6 6 6 6 5 5 2 3 3 2 2 4 3 2 3 2 2 3 3 4 5 6 6 5 5
25 2 26 27 27 29 19 5 3 3 2 1 3 1 2 1 3 4 4 4 3 4 2 4 4 6 2 4 2 5 6 5 5 4 3 3 3 2 4 4 5 4 5 4 3 3 4 3 2 3 7 2 3 5
4 15 31 31 24 10 2 3 4 3 4 2 1 3 2 1 3 1 2 2 4 3 4 4 6 3 5 4 4 5 5 4 3 3 3 4 5 5 4 6 4 2 4 4 4 4 3 3 3 4 4 4 4 5
15 19 33 32 12 6 4 1 3 4 4 2 2 1 2 1 1 0 2 1 1 2 6 3 4 3 4 4 4 3 3 3 2 3 4 4 4 5 5 3 4 3 3 3 3 3 2 3 4 3 3 2 2 4
28 34 34 26 8 4 4 2 2 4 3 3 3 2 3 2 1 1 2 1 2 2 2 1 5 4 4 4 4 3 3 2 3 3 4 4 2 3 4 3 3 4 4 5 3 3 3 4 2 2 2 2 3 5
25 23 28 9 2 4 3 4 2 2 3 3 2 2 1 2 3 2 1 1 3 3 2 3 2 2 2 1 2 2 4 3 1 2 2 3 3 2 3 2 2 1 1 2 2 3 2 2 3 3 3 4 4 4
7 21 4 2 3 2 4 2 5 1 3 2 3 2 3 2 2 2 1 1 3 2 0 1 2 2 3 5 4 5 4 4 2 2 3 3 3 4 3 3 3 3 3 3 3 3 4 3 4 4 3 5 4 4
17 4 4 3 4 3 2 2 5 3 4 3 1 3 2 1 1 1 1 2 1 3 4 4 4 3 3 4 5 7 10 8 6 5 5 5 2 2 3 3 3 4 5 4 2 3 4 6 5 6 5 5 5 5
10 4 5 6 4 4 4 3 3 4 3 2 3 4 2 2 1 1 3 1 3 3 5 7 6 3 3 6 6 4 6 5 3 3 3 4 4 4 3 3 2 2 1 4 3 5 6 7 8 6 6 5 6 5
8 7 6 5 3 7 5 4 2 3 4 3 4 3 3 2 2 3 3 2 3 4 5 5 4 5 3 2 1 3 2 3 4 4 3 1 3 2 3 3 2 2 2 7 7 7 7 6 5 6 7 6 9 11
6 6 9 6 4 7 7 7 7 7 5 4 2 2 2 3 4 4 1 3 3 4 5 5 5 3 3 2 2 3 4 2 1 2 3 1 1 1 2 4 5 5 4 2 5 8 9 8 8 11 10 10 10 10
7 4 3 2 5 6 5 3 3 5 5 7 6 6 4 6 7 2 2 3 3 3 3 2 2 2 2 3 3 3 5 3 3 5 5 2 0 1 2 3 6 6 8 8 7 8 10 11 11 11 12 11 10 10
4 5 9 5 5 1 7 4 6 7 6 3 6 6 10 4 3 1 2 3 3 4 2 1 1 2 3 3 3 5 4 7 7 1 2 2 1 1 1 3 4 11 8 7 8 8 8 9 10 11 13 13 12 11
3 3 5 5 4 3 2 5 5 1 2 4 5 4 4 3 0 2 2 3 3 3 3 5 5 5 4 5 3 5 4 6 9 8 9 6 5 4 7 8 8 8 7 9 14 13 13 12 13 12 13 11 11 10
2 3 5 5 5 3 2 1 2 2 4 4 6 6 4 3 2 2 2 3 3 3 3 2 2 3 4 5 5 6 3 2 3 3 3 5 6 9 9 9 9 9 8 9 10 11 14 12 12 10 10 9 8 8
1 1 6 5 5 3 3 4 2 4 4 5 4 6 5 4 0 1 4 2 2 2 3 3 3 3 2 3 3 5 4 2 2 6 6 7 8 9 9 9 9 8 8 9 9 10 11 11 9 10 11 12 12 10
4 4 5 6 4 5 2 3 3 4 4 4 3 3 3 4 3 2 2 2 3 4 5 5 5 4 4 3 3 4 8 7 7 8 10 8 8 9 9 9 8 8 9 9 9 9 10 11 10 10 10 12 11 10
3 4 4 6 5 4 3 5 4 4 5 4 4 2 2 3 4 1 1 1 1 2 5 6 6 6 7 6 5 5 7 6 10 13 14 14 14 12 9 7 7 8 9 8 8 8 10 10 9 10 10 10 9 8
Wind_Direction
187 189 187 185 187 180 180 170 173 245 288 284 285 342 42 59 108 98 177 57 111 120 90 6 343 342 324 334 3 306 327 355 2 47 71 299 63 47 73 339 97 131 122 172 73 67 293 164 68 154 217 356 132 112
186 186 182 190 193 202 179 190 197 201 230 264 308 324 323 15 148 109 87 358 56 78 72 40 33 17 359 349 321 0 359 341 30 348 47 108 60 47 134 110 276 67 170 177 163 203 338 228 322 349 161 139 104 112
185 183 182 187 191 182 172 192 198 196 190 242 305 316 41 18 159 116 125 116 58 89 37 48 20 344 346 340 302 331 302 336 17 55 156 175 82 14 63 308 179 314 200 88 59 232 248 203 207 100 80 100 87 87
182 179 181 181 186 174 185 185 189 199 184 201 300 95 48 78 125 111 105 122 89 109 111 274 309 18 317 316 256 279 306 334 72 47 53 72 84 14 316 250 168 201 100 169 296 317 336 256 250 129 85 88 100 97
179 178 179 177 179 180 183 187 189 192 172 158 204 133 70 77 102 83 78 43 139 124 166 234 293 340 329 346 16 28 31 36 22 36 30 58 10 26 304 17 280 182 180 144 201 206 188 226 189 166 133 148 164 141
177 177 176 173 177 178 179 186 188 170 165 148 199 115 121 118 119 65 34 332 11 106 97 138 284 347 330 346 37 21 359 38 47 83 68 38 15 77 81 238 262 253 17 18 148 204 115 79 91 113 166 163 149 198
176 175 175 176 178 189 184 180 182 175 154 167 174 145 135 99 73 108 179 220 123 78 88 34 344 345 355 18 9 355 7 27 28 43 41 335 43 346 138 232 265 258 223 281 304 49 18 22 223 9 96 56 24 32
176 172 174 176 176 182 181 179 177 170 170 162 147 113 94 91 92 30 344 32 83 89 66 110 329 360 2 359 21 6 15 13 14 25 14 26 334 337 261 247 255 249 271 287 271 141 163 273 38 41 40 32 18 292
171 168 174 169 175 176 178 171 162 173 167 130 114 98 61 39 60 251 316 57 46 117 123 89 133 211 356 354 254 2 71 39 308 61 14 42 311 234 226 234 267 220 152 200 40 71 27 51 274 274 97 1 244 268
168 168 170 172 171 177 168 157 166 167 130 114 59 61 355 274 332 9 5 26 17 343 32 94 332 114 75 18 335 55 23 61 53 273 330 70 266 270 252 234 247 229 177 158 79 349 37 282 237 263 238 259 227 241
167 168 167 169 171 177 161 160 162 130 102 51 85 124 234 311 57 34 34 75 327 15 10 110 170 145 312 114 161 35 185 14 76 270 96 322 282 254 279 283 262 256 218 225 164 138 147 134 155 206 264 239 239 246
166 165 165 171 176 167 158 167 146 98 162 168 132 91 49 39 39 83 284 332 73 219 264 128 205 155 135 85 98 330 121 43 228 309 69 290 252 259 296 282 304 292 234 233 203 209 222 219 219 230 249 250 231 233
164 165 167 172 174 166 164 166 138 124 110 41 50 61 64 306 42 139 222 288 298 177 192 167 135 130 24 58 64 80 77 203 3 44 231 235 279 289 291 305 309 303 209 214 214 265 273 267 264 213 250 240 253 270
164 166 167 170 168 167 166 141 136 109 74 91 124 179 149 270 245 188 188 194 220 114 138 114 83 118 257 59 118 86 236 71 43 24 242 254 244 268 303 277 293 340 191 176 198 213 228 234 263 271 251 260 275 292
162 161 162 163 163 155 139 138 115 64 93 134 84 216 204 205 56 214 258 329 248 147 115 76 45 90 8 88 41 112 40 296 199 229 233 246 253 274 311 285 191 161 170 177 220 254 295 300 306 310 313 309 286 294
156 148 161 161 159 143 138 120 59 82 66 86 64 93 359 59 299 332 175 235 210 132 72 58 111 63 344 128 93 212 120 214 240 219 235 263 275 266 249 227 237 254 259 286 301 274 302 298 272 271 303 287 268 252
150 131 163 157 152 136 132 89 79 74 159 219 267 60 125 103 176 186 154 197 138 85 182 111 88 201 88 46 298 195 201 222 221 249 243 224 212 224 231 242 247 236 259 279 293 288 262 270 332 329 312 309 303 279
103 149 154 144 128 110 62 55 98 119 235 210 178 239 187 164 125 251 227 183 132 152 128 194 128 111 171 153 276 243 241 264 227 229 237 244 238 255 223 252 270 257 276 268 234 258 248 290 294 276 289 311 317 306
145 152 144 138 128 112 121 101 109 189 214 156 107 39 95 139 251 351 115 81 145 182 113 64 88 192 226 210 200 256 248 215 207 252 244 253 233 245 269 276 281 279 262 267 311 301 286 257 261 282 280 316 302 307
146 140 146 152 113 97 99 92 85 119 180 186 78 79 92 104 282 54 69 38 100 92 57 151 207 220 175 225 195 190 205 163 97 359 309 319 11 1 329 332 330 330 330 343 354 356 346 333 338 353 324 304 315 296
130 152 150 114 93 76 96 136 116 124 133 115 126 122 91 19 67 140 224 284 57 210 248 212 232 288 357 13 47 47 43 35 280 197 231 300 322 350 334 8 336 30 49 334 332 313 349 289 293 312 310 297 275 280
111 126 94 83 95 85 86 43 114 109 77 97 133 117 105 112 135 175 257 71 224 262 111 8 358 8 27 43 38 34 309 321 343 3 38 335 359 350 346 355 357 348 351 340 11 337 321 312 317 315 311 309 306 310
103 90 82 122 126 105 118 33 86 8 115 166 163 107 59 86 255 297 195 220 90 23 28 23 340 325 56 93 68 45 27 12 5 358 359 354 338 347 344 357 13 17 7 1 344 319 316 309 322 334 327 332 340 325
97 99 136 155 129 120 116 82 76 98 79 136 148 115 162 125 181 94 230 212 93 57 29 4 351 357 68 48 36 16 6 351 335 342 7 11 6 332 351 340 14 51 244 281 318 335 337 335 329 325 312 296 283 271
128 170 165 154 92 115 116 128 94 95 127 167 118 138 173 169 142 193 223 112 43 50 13 0 24 25 60 61 18 339 314 23 352 320 295 54 327 329 13 5 322 264 312 357 349 333 322 314 311 311 312 311 318 322
178 185 174 140 150 126 165 132 175 156 129 129 100 107 173 157 164 218 126 24 22 28 11 9 357 359 47 31 316 331 327 316 335 277 287 350 321 291 343 16 349 321 6 327 302 317 319 323 322 324 324 325 317 311
179 145 91 27 102 116 94 60 65 110 139 160 167 167 167 167 217 114 120 34 359 12 324 341 331 4 324 320 306 301 309 292 249 258 285 305 38 153 79 19 333 308 321 323 321 320 317 319 322 324 320 317 312 309
125 159 136 187 97 62 121 112 142 174 165 171 124 165 175 190 144 17 15 355 323 305 304 312 334 329 318 326 320 333 330 331 319 10 115 93 103 127 17 337 326 323 318 312 313 311 312 309 306 305 305 302 304 304
80 345 103 76 88 77 105 154 160 123 1 170 121 114 116 68 269 336 334 332 325 359 18 6 1 355 359 349 353 0 12 13 27 27 9 338 336 319 348 332 325 322 320 317 315 315 307 306 306 309 303 297 296 296
89 329 96 67 75 82 349 322 97 108 49 81 107 104 78 60 0 348 11 5 11 356 319 316 309 358 357 357 345 350 346 49 73 67 312 297 294 303 306 307 307 306 307 305 302 302 305 307 309 317 313 310 311 310
280 275 83 67 77 56 97 122 102 77 70 62 39 79 116 137 209 8 31 347 343 349 358 350 332 334 356 345 350 338 327 296 296 293 273 280 286 287 289 293 295 295 295 297 299 306 310 311 308 306 306 308 308 308
21 43 120 109 117 176 163 59 62 65 59 57 72 87 78 80 80 327 316 350 12 15 357 339 335 328 322 290 257 250 255 279 294 305 306 295 297 294 294 294 294 298 295 301 305 304 308 310 308 308 309 310 309 310
50 16 57 104 108 135 140 103 67 86 50 66 50 60 60 97 113 170 206 31 1 340 335 321 312 304 295 289 283 289 294 290 294 302 304 301 301 302 302 292 289 294 299 300 300 298 303 309 310 313 313 316 321 330